Waarnemingen

Advertentie
Mijn weer
Gemini, Nederland (6214): temperatuur & dauwpunt: 17.07.2017 10:00:00 - 23.07.2017 10:00:00 (CEST)Gemini, Nederland (6214): windsnelheid & windstoten: 17.07.2017 10:00:00 - 23.07.2017 10:00:00 (CEST)Gemini, Nederland (6214): windrichting: 17.07.2017 10:00:00 - 23.07.2017 10:00:00 (CEST)Gemini, Nederland (6214): luchtdruk: 17.07.2017 10:00:00 - 23.07.2017 10:00:00 (CEST)Gemini, Nederland (6214): zicht: 17.07.2017 10:00:00 - 23.07.2017 10:00:00 (CEST)
Datum & Tijd tt [°C] td [°C] ff [km/u] ff [kn] fx [km/u] fx [kn] dd ppp [hPa] vv [km]
23.07.2017 10:00:00 17,7 14,4 18 10 25 14 WNW 1009,7 10
23.07.2017 09:00:00 17,0 14,0 18 10 22 12 WNW 1009,2 50
23.07.2017 08:00:00 16,1 12,3 18 10 22 12 NW 1009,1 10
23.07.2017 07:00:00 15,9 14,2 15 8 18 10 NW 1008,9 1,4
23.07.2017 06:00:00 17,1 16,1 11 6 18 10 ZW 1008,9 8
23.07.2017 05:00:00 17,2 16,1 11 6 18 10 ZW 1009,4 10
23.07.2017 04:00:00 17,2 16,1 13 7 22 12 Z 1009,6 10
23.07.2017 03:00:00 16,6 15,3 11 6 22 12 Z 1010,2 3,0
23.07.2017 02:00:00 18,2 16,4 18 10 29 16 Z 1010,9 7
23.07.2017 01:00:00 18,1 15,6 24 13 32 18 ZZO 1011,0 10
23.07.2017 00:00:00 18,6 16,3 8 4 11 6 OZO 1011,1 10
22.07.2017 23:00:00 18,2 16,5 9 5 18 10 O 1011,1 10
22.07.2017 22:00:00 18,6 16,4 15 8 22 12 O 1011,1 10
22.07.2017 21:00:00 18,6 16,9 24 13 32 18 - 1011,5 10
22.07.2017 20:00:00 18,9 16,9 18 10 25 14 OZO 1011,0 10
22.07.2017 19:00:00 18,8 16,9 24 13 29 16 OZO 1011,4 10
22.07.2017 18:00:00 18,9 16,6 22 12 32 18 OZO 1011,0 10
22.07.2017 17:00:00 18,4 16,4 31 17 32 18 OZO 1011,2 10
22.07.2017 16:00:00 18,1 16,4 29 16 29 16 OZO 1011,5 10
22.07.2017 15:00:00 18,7 16,0 18 10 25 14 ZO 1011,9 10
22.07.2017 14:00:00 18,1 15,9 21 11 29 16 ZO 1011,8 10
22.07.2017 13:00:00 17,9 15,9 24 13 29 16 OZO 1011,6 10
22.07.2017 12:00:00 17,8 15,4 16 9 22 12 ZZO 1011,7 10
22.07.2017 11:00:00 17,3 15,1 11 6 22 12 ZZO 1011,9 10
22.07.2017 10:00:00 17,8 14,7 18 10 25 14 ZZO 1011,9 10
22.07.2017 09:00:00 18,3 14,2 24 13 43 23 ZZO 1011,7 10
22.07.2017 08:00:00 18,8 14,3 26 14 36 19 OZO 1011,2 10
22.07.2017 07:00:00 18,6 13,7 35 19 40 21 OZO 1011,1 10
22.07.2017 06:00:00 18,4 13,3 35 19 43 23 OZO 1011,4 10
22.07.2017 05:00:00 18,3 13,2 37 20 40 21 OZO 1011,7 10
22.07.2017 04:00:00 18,3 11,8 34 18 36 19 OZO 1012,2 10
22.07.2017 03:00:00 18,2 11,7 29 16 40 21 OZO 1012,8 10
22.07.2017 02:00:00 17,8 12,3 28 15 36 19 OZO 1012,8 10
22.07.2017 01:00:00 17,5 12,0 28 15 32 18 OZO 1013,1 10
22.07.2017 00:00:00 17,4 12,0 34 18 36 19 OZO 1013,1 10
21.07.2017 23:00:00 17,3 12,0 34 18 40 21 OZO 1013,5 10
21.07.2017 22:00:00 17,3 10,9 34 18 36 19 OZO 1013,4 10
21.07.2017 21:00:00 17,2 11,0 35 19 36 19 OZO 1013,6 10
21.07.2017 20:00:00 17,3 10,9 35 19 36 19 OZO 1013,5 10
21.07.2017 19:00:00 17,3 10,9 31 17 36 19 OZO 1013,7 10
21.07.2017 18:00:00 17,6 9,6 31 17 32 18 OZO 1014,0 10
21.07.2017 17:00:00 17,6 11,3 22 12 29 16 OZO 1014,2 10
21.07.2017 16:00:00 17,7 12,3 21 11 22 12 OZO 1014,5 10
21.07.2017 15:00:00 17,5 12,0 18 10 22 12 ZO 1014,8 10
21.07.2017 14:00:00 17,4 11,9 15 8 22 12 ZO 1014,8 10
21.07.2017 13:00:00 17,2 11,8 16 9 22 12 ZZO 1014,9 10
21.07.2017 12:00:00 17,3 11,7 11 6 14 8 Z 1014,9 10
21.07.2017 11:00:00 17,0 12,0 15 8 18 10 Z 1014,6 10
21.07.2017 10:00:00 17,1 10,6 8 4 7 4 Z 1014,3 10
21.07.2017 09:00:00 16,5 10,5 8 4 11 6 ZW 1014,0 10
21.07.2017 08:00:00 17,2 10,2 11 6 18 10 W 1013,5 10
21.07.2017 07:00:00 16,7 9,5 15 8 18 10 W 1013,1 10
21.07.2017 06:00:00 15,9 9,5 14 8 25 14 W 1012,7 48
21.07.2017 05:00:00 15,8 9,5 24 13 32 18 W 1012,4 10
21.07.2017 04:00:00 15,9 9,3 31 17 36 19 W 1012,0 10
21.07.2017 03:00:00 15,8 11,8 26 14 32 18 W 1011,7 10
21.07.2017 02:00:00 15,9 11,7 28 15 32 18 W 1011,2 10
21.07.2017 01:00:00 16,1 12,7 31 17 40 21 W 1010,9 10
21.07.2017 00:00:00 16,5 12,5 32 18 47 25 W 1010,5 42
20.07.2017 23:00:00 16,9 14,3 41 22 47 25 W 1009,7 10
20.07.2017 22:00:00 18,2 16,5 29 16 40 21 WZW 1008,4 10
20.07.2017 21:00:00 18,8 16,2 22 12 29 16 ZW 1007,7 38
20.07.2017 20:00:00 18,8 16,5 14 8 25 14 ZW 1007,4 38
20.07.2017 19:00:00 18,7 16,9 14 8 25 14 ZW 1006,9 31
20.07.2017 18:00:00 18,6 17,2 15 8 22 12 ZW 1006,8 10
20.07.2017 17:00:00 18,6 17,0 13 7 14 8 ZW 1007,1 10
20.07.2017 16:00:00 18,5 15,8 9 5 14 8 ZW 1006,7 10
20.07.2017 15:00:00 18,6 17,0 18 10 25 14 ZW 1006,7 10
20.07.2017 14:00:00 18,8 17,8 15 8 22 12 ZZW 1006,6 8
20.07.2017 13:00:00 18,8 18,0 15 8 22 12 Z 1006,4 7
20.07.2017 12:00:00 18,9 17,8 16 9 - - Z 1006,6 10
20.07.2017 11:00:00 18,4 17,5 24 13 25 14 Z 1006,8 8
20.07.2017 10:00:00 18,6 17,3 7 4 11 6 ZZO 1006,7 11
20.07.2017 09:00:00 18,6 17,4 11 6 18 10 Z 1006,9 10
20.07.2017 08:00:00 19,1 17,4 8 4 11 6 ZZW 1006,6 10
20.07.2017 07:00:00 18,9 17,1 8 4 11 6 ZO 1006,6 10
20.07.2017 06:00:00 19,2 16,5 8 4 25 14 ZZW 1006,5 10
20.07.2017 05:00:00 19,2 17,8 26 14 36 19 ZZW 1005,7 7
20.07.2017 04:00:00 19,3 17,2 28 15 43 23 ZZW 1006,8 10
20.07.2017 03:00:00 19,7 17,1 50 27 50 27 Z 1006,4 10
20.07.2017 02:00:00 19,4 17,3 35 19 43 23 Z 1007,2 10
20.07.2017 01:00:00 19,4 17,2 32 18 47 25 ZZO 1007,3 24
20.07.2017 00:00:00 19,1 17,0 54 29 58 31 ZZO 1007,2 10
19.07.2017 23:00:00 19,4 16,5 57 31 61 33 ZO 1007,5 10
19.07.2017 22:00:00 20,0 15,9 57 31 61 33 ZO 1007,6 10
19.07.2017 21:00:00 20,5 15,9 55 30 61 33 OZO 1007,0 10
19.07.2017 20:00:00 20,4 15,7 57 31 65 35 OZO 1007,3 10
19.07.2017 19:00:00 19,7 16,1 54 29 58 31 O 1007,5 10
19.07.2017 18:00:00 18,8 16,2 57 31 58 31 O 1008,0 10
19.07.2017 17:00:00 18,8 16,2 50 27 50 27 O 1009,2 10
19.07.2017 16:00:00 18,8 16,1 44 24 54 29 O 1009,3 10
19.07.2017 15:00:00 18,6 15,9 50 27 50 27 OZO 1009,1 10
19.07.2017 14:00:00 18,7 15,4 48 26 - - OZO 1009,7 10
19.07.2017 13:00:00 18,3 15,0 42 23 43 23 OZO 1010,6 10
19.07.2017 12:00:00 17,8 14,7 34 18 40 21 OZO 1011,4 10
19.07.2017 11:00:00 17,8 14,3 41 22 43 23 OZO 1012,0 10
19.07.2017 10:00:00 17,8 14,4 29 16 40 21 OZO 1012,8 29
19.07.2017 09:00:00 17,7 14,6 39 21 40 21 OZO 1013,4 10
19.07.2017 08:00:00 17,4 14,7 35 19 40 21 O 1013,9 10
19.07.2017 07:00:00 17,6 14,7 25 14 36 19 O 1014,6 31
19.07.2017 06:00:00 17,4 14,7 34 18 36 19 O 1014,9 10
19.07.2017 05:00:00 17,0 14,2 37 20 43 23 O 1015,4 10
19.07.2017 04:00:00 16,7 14,2 41 22 43 23 OZO 1016,5 10
19.07.2017 03:00:00 16,8 13,9 41 22 43 23 O 1017,1 10
19.07.2017 02:00:00 16,8 13,6 39 21 - - O 1017,6 10
19.07.2017 01:00:00 16,8 13,0 31 17 36 19 - 1017,7 10
19.07.2017 00:00:00 16,8 13,1 35 19 40 21 O 1018,0 10
18.07.2017 23:00:00 16,8 12,5 22 12 - - - 1018,7 10
18.07.2017 22:00:00 16,8 12,4 18 10 36 19 O 1019,0 10
18.07.2017 21:00:00 16,8 12,7 14 8 29 16 O 1019,5 45
18.07.2017 20:00:00 16,7 12,6 16 9 - - - 1019,8 10
18.07.2017 19:00:00 16,7 12,3 16 9 25 14 - 1019,9 10
18.07.2017 18:00:00 16,5 12,3 16 9 25 14 - 1020,2 10
18.07.2017 17:00:00 16,4 11,7 13 7 - - - 1020,9 10
18.07.2017 16:00:00 16,4 11,7 11 6 18 10 O 1021,5 49
18.07.2017 15:00:00 16,5 10,9 13 7 18 10 O 1022,0 10
18.07.2017 14:00:00 16,3 10,9 7 4 - - OZO 1022,5 49
18.07.2017 13:00:00 16,3 10,3 13 7 18 10 ZO 1022,8 10
18.07.2017 12:00:00 16,3 10,3 11 6 14 8 OZO 1023,1 10
18.07.2017 11:00:00 16,1 10,8 9 5 11 6 ZO 1023,3 10
18.07.2017 10:00:00 15,9 10,7 5 3 11 6 ZO 1023,4 10
18.07.2017 09:00:00 15,7 10,5 9 5 11 6 - 1023,2 10
18.07.2017 08:00:00 15,7 10,7 4 2 14 8 - 1023,1 10
18.07.2017 07:00:00 15,7 10,8 2 1 7 4 - 1023,1 10
18.07.2017 06:00:00 15,5 10,7 4 2 7 4 - 1023,0 10
18.07.2017 05:00:00 15,5 10,9 4 2 7 4 - 1022,7 10
18.07.2017 04:00:00 15,6 10,9 4 2 7 4 - 1023,0 10
18.07.2017 03:00:00 15,6 11,0 5 3 7 4 N 1023,2 10
18.07.2017 02:00:00 15,7 11,3 8 4 7 4 N 1023,4 10
18.07.2017 01:00:00 15,8 11,1 5 3 7 4 N 1023,2 10
18.07.2017 00:00:00 15,8 11,5 4 2 7 4 NW 1023,2 45
17.07.2017 23:00:00 15,8 11,4 5 3 11 6 NW 1023,3 10
17.07.2017 22:00:00 15,9 11,1 8 4 11 6 NNW 1023,3 10
17.07.2017 21:00:00 16,1 11,4 9 5 14 8 NNW 1023,1 10
17.07.2017 20:00:00 16,2 11,3 11 6 18 10 NW 1023,0 10
17.07.2017 19:00:00 16,4 11,3 13 7 18 10 NW 1022,9 10
17.07.2017 18:00:00 16,4 11,2 16 9 22 12 NW 1022,9 10
17.07.2017 17:00:00 16,3 10,2 21 11 25 14 NW 1023,2 10
17.07.2017 16:00:00 16,6 10,2 22 12 25 14 WNW 1023,1 10
17.07.2017 15:00:00 16,6 10,4 21 11 29 16 NW 1023,1 10
17.07.2017 14:00:00 16,4 10,1 28 15 29 16 NW 1023,0 10
17.07.2017 13:00:00 16,9 11,6 22 12 25 14 WNW 1022,7 10
17.07.2017 12:00:00 17,2 11,2 21 11 25 14 WNW 1022,6 10
17.07.2017 11:00:00 17,1 11,8 21 11 25 14 WNW 1022,6 10
17.07.2017 10:00:00 17,4 12,1 24 13 25 14 WNW 1022,7 10

tt = temperatuur
td = dauwpunt
ff = windsnelheid
fx = windstoten
dd = windrichting
ppp = luchtdruk
vv = zicht

Weerstations in de omgeving